[[{"header":{"parameterUnit":"m.s-1","parameterCategory":1,"la1":30.2991,"la2":30.254,"lo1":-89.0895,"lo2":-89.0444,"dy":0.0017,"dx":0.0017,"nx":28,"ny":28,"refTime":"2025-11-05T03:00:00:Z","depth":0,"parameterNumber":2,"parameterNumberName":"U-component_of_WINDS"},"data":[0,0,0,0,0,0,0,0,0,0,0,0,0,0,0,0,0,0,0,0,0,0,0,0,0,0,0,0,0,0,0,0,0,0,0,0,0,0,0,0,0,0,0,0,0,0,0,0,0,0,0,0,0,0,0,0,0,0,-3.9548,-3.9548,0,-3.9594,-3.9595,-3.9595,-3.9484,-3.948,-3.9477,-3.9473,-3.9524,-3.9529,-3.9533,0,0,0,0,0,0,0,0,0,0,0,0,0,-3.9369,-3.9373,-3.9548,-3.9548,-3.9549,-3.9594,-3.9595,-3.9595,-3.9484,-3.948,-3.9476,-3.9472,-3.9523,-3.9528,-3.9534,0,0,0,0,0,0,0,0,0,0,0,0,0,-3.9434,-3.9374,-3.9548,-3.9499,-3.9495,-3.9594,-3.9595,-3.9595,-3.9485,-3.948,-3.9475,-3.947,-3.9521,-3.9527,-3.9534,-3.9683,0,0,-3.9556,-3.9559,0,0,0,0,0,0,0,0,-3.9431,-3.9441,-3.9506,-3.9502,-3.9498,-3.9528,-3.955,-3.9625,-3.9487,-3.9489,-3.9473,-3.9467,-3.953,-3.9536,-3.9556,-3.9686,-3.9688,-3.9556,-3.956,-3.9563,-3.9565,0,0,0,0,0,0,0,-3.9426,-3.9438,-3.9566,-3.9507,-3.9502,-3.9477,-3.948,-3.9564,-3.9539,-3.9489,-3.9481,-3.9487,-3.9527,-3.955,-3.9556,-3.9688,-3.9556,-3.9562,-3.9566,-3.9569,-3.9948,-3.9953,0,0,0,0,0,0,-3.9427,-3.9435,-3.9565,-3.9567,-3.9451,-3.9484,-3.9488,-3.9524,-3.9537,-3.9534,-3.9492,-3.9482,-3.954,-3.9548,-3.9558,-3.9736,-3.9563,-3.957,-3.9574,-3.9942,-3.9949,-3.9955,0,0,0,0,0,0,-3.9424,-3.944,-3.9563,-3.9499,-3.9513,-3.9493,-3.9534,-3.9527,-3.955,-3.954,-3.9535,-3.9519,-3.9536,-3.9548,-3.9654,-3.9736,-3.9573,-3.9579,-3.9935,-3.9944,-3.9952,-4.0092,0,0,0,0,0,0,-3.9419,-3.9439,-3.9494,-3.9501,-3.9517,-3.9657,-3.9539,-3.9532,-3.9562,-3.9549,-3.9565,-3.9562,-3.9533,-3.9644,-3.9661,-3.9743,-3.9585,-3.9927,-3.9939,-3.9949,-4.008,-4.0105,-4.0126,0,0,0,0,0,-3.9413,-3.9531,-3.9497,-3.9514,-3.9585,-3.9661,-3.967,-3.9634,-3.9569,-3.9625,-3.9619,-3.9562,-3.9724,-3.9656,-3.9674,-3.9759,-3.9922,-3.9936,-3.9949,-4.007,-4.01,-4.0125,0,0,0,0,0,0,-3.9534,-3.9531,-3.9493,-3.9617,-3.9641,-3.9642,-3.9712,-3.9666,-3.9709,-3.9696,-3.9649,-3.9654,-3.977,-3.9774,-3.9698,-3.9906,-3.9812,-3.983,-3.9899,-3.9927,-3.995,-3.9947,-3.9591,0,0,0,0,0,-3.9575,-3.9637,-3.9631,-3.9741,-3.9755,-3.9732,-3.9764,-3.9734,-3.9757,-3.9766,-3.9768,-3.9793,-3.985,-3.9889,-3.994,-4.0081,-4.0084,-4.0149,-4.0171,-4.019,-4.0206,-4.0285,-4.0315,-3.9999,-3.9999,-3.9998,0,0,-3.9661,-3.9667,-3.9708,-3.9766,-3.978,-3.9847,-3.9741,-3.9814,-3.9865,-3.9777,-3.9878,-3.9881,-3.9906,-4.0031,-4.0086,-4.0039,-4.0295,-4.0207,-4.0222,-4.0228,-4.0302,-4.0332,-4.0358,-4.0008,-4.0006,-4.0005,0,0,-3.9851,-3.986,-3.9954,-3.9972,-3.9996,-3.998,-4.0003,-4.0013,-4.0012,-4.0112,-4.0049,-4.0109,-4.0207,-4.0229,-4.0253,-4.0457,-4.0407,-4.0475,-4.0595,-4.0672,-4.0697,-4.0719,-4.0795,-4.0823,-4.0491,-4.0492,-4.0492,0,-3.9954,-4.0051,-4.0009,-4.0089,-4.0118,-4.0042,-4.0139,-4.0158,-4.0198,-4.0221,-4.0167,-4.0292,-4.0304,-4.0435,-4.0485,-4.0506,-4.0533,-4.0474,-4.0697,-4.0718,-4.0738,-4.081,-4.0839,-4.05,-4.0499,-4.0498,-4.0497,0,-4.0179,-4.0247,-4.0321,-4.0362,-4.0399,-4.0487,-4.0461,-4.0504,-4.0472,-4.0463,-4.0569,-4.0581,-4.0635,-4.0664,-4.0633,-4.0792,-4.0763,-4.0704,-4.0609,-4.0777,-4.0845,-4.0871,-4.0512,-4.0509,-4.0506,-4.0504,0,0,-4.0444,-4.0464,-4.0492,-4.0511,-4.0534,-4.0587,-4.0673,-4.0727,-4.0766,-4.0797,-4.0871,-4.0958,-4.0905,-4.0932,-4.0904,-4.0971,-4.1137,-4.0905,-4.0905,-4.095,-4.1318,-4.1363,-4.1396,-4.1104,-4.1108,-4.1112,-4.1316,0,-4.0634,-4.0781,-4.0748,-4.0895,-4.096,-4.0891,-4.0967,-4.0991,-4.0986,-4.1042,-4.1037,-4.1101,-4.1024,-4.1041,-4.1105,-4.1103,-4.121,-4.1088,-4.1174,-4.1178,-4.1172,-4.143,-4.1477,-4.1669,-4.1342,-4.1346,-4.1349,0,-4.0874,-4.0916,-4.1069,-4.1085,-4.1111,-4.118,-4.1229,-4.1282,-4.1309,-4.1301,-4.1335,-4.1294,-4.1383,-4.1287,-4.1411,-4.1329,-4.1363,-4.1368,-4.1374,-4.1382,-4.1275,-4.1447,-4.1729,-4.1759,-4.139,-4.1386,-4.1384,0,-4.1057,-4.1151,-4.1255,-4.1274,-4.1294,-4.1345,-4.1356,-4.1378,-4.1414,-4.1457,-4.148,-4.1534,-4.1563,-4.1607,-4.1584,-4.1515,-4.1714,-4.1614,-4.1712,-4.1713,-4.1757,-4.1755,-4.2051,-4.1776,-4.1776,-4.1775,-4.1775,0,-4.1273,-4.137,-4.1338,-4.1403,-4.1511,-4.1473,-4.1582,-4.1585,-4.1606,-4.1673,-4.1616,-4.168,-4.1644,-4.1706,-4.1689,-4.1797,-4.181,-4.1808,-4.1803,-4.1814,-4.1815,-4.1837,-4.1824,-4.1783,-4.1781,-4.178,-4.1779,0,-4.1494,-4.1476,-4.1587,-4.1598,-4.1604,-4.1683,-4.1694,-4.1756,-4.1748,-4.1833,-4.1851,-4.184,-4.191,-4.1891,-4.1967,-4.1956,-4.2093,-4.2069,-4.2084,-4.2079,-4.2179,-4.2171,-4.2501,-4.2544,-4.2239,-4.2242,-4.2245,0,-4.1634,-4.1708,-4.1728,-4.1768,-4.1784,-4.1849,-4.1886,-4.1854,-4.1895,-4.1934,-4.1992,-4.2058,-4.2108,-4.2225,-4.2225,-4.2285,-4.2264,-4.2375,-4.2272,-4.2283,-4.2269,-4.2266,-4.2275,-4.2396,-4.2399,-4.2402,-4.2405,0,-4.1886,-4.1874,-4.1929,-4.1983,-4.2029,-4.2069,-4.2104,-4.2141,-4.2112,-4.2161,-4.2233,-4.2273,-4.2352,-4.2419,-4.2475,-4.2488,-4.2444,-4.2437,-4.2464,-4.2477,-4.2484,-4.2485,-4.2142,-4.243,-4.2427,-4.2425,-4.2424,-4.2423,-4.2072,-4.2136,-4.2162,-4.2226,-4.225,-4.2285,-4.2345,-4.2346,-4.2405,-4.2467,-4.2444,-4.2528,-4.2558,-4.2627,-4.2648,-4.2715,-4.2673,-4.271,-4.272,-4.273,-4.2744,-4.2472,-4.2724,-4.2724,-4.2723,-4.2722,-4.2722,0,-4.2323,-4.2337,-4.2397,-4.2449,-4.2501,-4.2454,-4.2492,-4.2539,-4.2613,-4.2644,-4.2696,-4.2781,-4.2847,-4.2853,-4.2917,-4.2969,-4.295,-4.2987,-4.2984,-4.2989,-4.2777,-4.2749,-4.3001,-4.3001,-4.3001,-4.3001,-4.3001,-4.3001,-4.246,-4.2567,-4.2559,-4.2679,-4.2692,-4.2773,-4.28,-4.2834,-4.2859,-4.2956,-4.3011,-4.3014,-4.3037,-4.3102,-4.3162,-4.3163,-4.319,-4.3235,-4.3228,-4.3031,-4.3003,-4.2976,-4.295,-4.3241,-4.3241,-4.3435,-4.3437,-4.3438]},{"header":{"parameterUnit":"m.s-1","parameterCategory":1,"la1":30.2991,"la2":30.254,"lo1":-89.0895,"lo2":-89.0444,"dy":0.0017,"dx":0.0017,"nx":28,"ny":28,"refTime":"2025-11-05T03:00:00:Z","depth":0,"parameterNumber":3,"parameterNumberName":"V-component_of_WINDS"},"data":[0,0,0,0,0,0,0,0,0,0,0,0,0,0,0,0,0,0,0,0,0,0,0,0,0,0,0,0,0,0,0,0,0,0,0,0,0,0,0,0,0,0,0,0,0,0,0,0,0,0,0,0,0,0,0,0,0,0,0.5101,0.5101,0,0.5137,0.5137,0.5138,0.5222,0.5224,0.5226,0.5227,0.5261,0.526,0.5259,0,0,0,0,0,0,0,0,0,0,0,0,0,0.5103,0.5102,0.5101,0.5101,0.5102,0.5137,0.5137,0.5138,0.5222,0.5224,0.5226,0.5228,0.5261,0.526,0.5259,0,0,0,0,0,0,0,0,0,0,0,0,0,0.5116,0.5102,0.5101,0.5148,0.5152,0.5137,0.5137,0.5138,0.5221,0.5224,0.5227,0.5229,0.5261,0.526,0.5259,0.5199,0,0,0.5255,0.5255,0,0,0,0,0,0,0,0,0.5116,0.5116,0.514,0.5145,0.515,0.5178,0.515,0.5158,0.5221,0.5195,0.5227,0.523,0.5231,0.5232,0.5233,0.5201,0.5202,0.5255,0.5255,0.5254,0.5254,0,0,0,0,0,0,0,0.5115,0.5115,0.5115,0.5141,0.5146,0.5167,0.5172,0.5152,0.5197,0.5197,0.5204,0.5207,0.5234,0.5234,0.5234,0.5203,0.5255,0.5254,0.5254,0.5253,0.5124,0.5122,0,0,0,0,0,0,0.5107,0.5114,0.5114,0.5116,0.5139,0.5164,0.517,0.5166,0.5198,0.5205,0.5205,0.5211,0.5235,0.5236,0.5236,0.5168,0.5254,0.5253,0.5253,0.5127,0.5124,0.5121,0,0,0,0,0,0,0.5107,0.5106,0.5112,0.5117,0.5119,0.5162,0.5156,0.5165,0.5166,0.5203,0.5212,0.5197,0.5237,0.5238,0.5208,0.5171,0.5253,0.5252,0.513,0.5126,0.5122,0.5032,0,0,0,0,0,0,0.5107,0.5106,0.5084,0.5116,0.5119,0.5084,0.5154,0.5164,0.5164,0.5172,0.5198,0.5205,0.5239,0.5209,0.5207,0.5171,0.5251,0.5134,0.5129,0.5124,0.5039,0.5026,0.5014,0,0,0,0,0,0.5106,0.5056,0.5082,0.5082,0.5092,0.5082,0.5083,0.5124,0.5161,0.5138,0.5163,0.5204,0.5176,0.5206,0.5204,0.5166,0.5136,0.513,0.5124,0.5044,0.5028,0.5015,0,0,0,0,0,0,0.5016,0.5061,0.509,0.5049,0.5061,0.5096,0.5069,0.5106,0.5107,0.5114,0.5165,0.517,0.5133,0.5148,0.518,0.5111,0.5163,0.5156,0.5103,0.5088,0.5076,0.5072,0.525,0,0,0,0,0,0.4992,0.4981,0.502,0.498,0.4985,0.5026,0.5023,0.5054,0.5068,0.5073,0.5096,0.5107,0.5101,0.5095,0.5092,0.5042,0.5049,0.5016,0.5003,0.4993,0.4986,0.4961,0.4947,0.5101,0.5101,0.5101,0,0,0.4941,0.4964,0.4953,0.4962,0.4975,0.4962,0.5029,0.5012,0.5003,0.507,0.5044,0.5061,0.5077,0.5038,0.5021,0.5048,0.4946,0.4985,0.4977,0.4975,0.4954,0.4939,0.4926,0.5096,0.5097,0.5098,0,0,0.4841,0.4857,0.4826,0.4838,0.4858,0.4886,0.4879,0.4909,0.4923,0.4898,0.4949,0.4938,0.4926,0.4936,0.4939,0.4846,0.4883,0.4843,0.4779,0.4754,0.4742,0.4731,0.4698,0.4685,0.4837,0.4836,0.4836,0,0.4774,0.4757,0.4804,0.4785,0.4787,0.485,0.4818,0.4828,0.4844,0.4844,0.4875,0.4863,0.4878,0.4842,0.4819,0.482,0.4812,0.4839,0.474,0.473,0.4721,0.4689,0.4676,0.4831,0.4832,0.4832,0.4833,0,0.4674,0.4661,0.4634,0.465,0.465,0.4624,0.4667,0.4661,0.4693,0.4717,0.4692,0.4713,0.4715,0.4709,0.4739,0.4677,0.4694,0.4731,0.4784,0.47,0.4671,0.466,0.4824,0.4826,0.4827,0.4829,0,0,0.4515,0.4561,0.4549,0.4558,0.4586,0.4577,0.4554,0.4558,0.4552,0.4562,0.4544,0.4534,0.457,0.4574,0.4606,0.4584,0.4508,0.4625,0.4626,0.4602,0.4442,0.4412,0.4397,0.4535,0.4533,0.4531,0.444,0,0.442,0.4385,0.4428,0.4383,0.4372,0.4433,0.4414,0.4428,0.4452,0.4446,0.4472,0.4463,0.4512,0.4514,0.4496,0.4521,0.4477,0.4529,0.4517,0.4516,0.451,0.4382,0.435,0.4263,0.4429,0.4427,0.4426,0,0.4304,0.4311,0.4265,0.4298,0.4295,0.4276,0.4284,0.4278,0.4296,0.4315,0.432,0.4359,0.4339,0.4392,0.4365,0.44,0.4398,0.441,0.4408,0.4407,0.4464,0.4376,0.4236,0.4222,0.4409,0.441,0.4411,0,0.4192,0.419,0.4162,0.4168,0.4205,0.4191,0.4206,0.4227,0.4227,0.4234,0.4234,0.4238,0.4239,0.4241,0.4281,0.4316,0.4249,0.4305,0.4263,0.4261,0.4244,0.4244,0.41,0.4245,0.4245,0.4246,0.4246,0,0.4081,0.405,0.4113,0.4095,0.4063,0.4114,0.408,0.4101,0.412,0.4108,0.4161,0.4148,0.4202,0.4195,0.4226,0.4199,0.4199,0.4213,0.4221,0.4207,0.4205,0.4205,0.4212,0.4242,0.4243,0.4244,0.4244,0,0.3949,0.3989,0.3964,0.4002,0.4011,0.3985,0.4018,0.4003,0.4032,0.4016,0.4015,0.4058,0.4053,0.4093,0.4095,0.4116,0.4074,0.4093,0.4067,0.4073,0.4028,0.4031,0.3878,0.386,0.4017,0.4016,0.4014,0,0.3874,0.3852,0.3889,0.3885,0.3898,0.3891,0.3892,0.3942,0.394,0.3961,0.3944,0.3943,0.3945,0.3934,0.3965,0.3967,0.3986,0.3933,0.3987,0.3974,0.3984,0.3984,0.3982,0.392,0.3918,0.3917,0.3916,0,0.3737,0.3759,0.3758,0.3766,0.3766,0.3773,0.3784,0.3778,0.3833,0.3828,0.3824,0.3826,0.383,0.3828,0.3837,0.3852,0.3892,0.3899,0.3889,0.3873,0.3859,0.3865,0.4035,0.3901,0.3903,0.3904,0.3905,0.3905,0.363,0.3614,0.3638,0.3636,0.365,0.366,0.3649,0.3677,0.3675,0.3682,0.3712,0.3702,0.3723,0.3739,0.375,0.3744,0.377,0.3755,0.3751,0.3747,0.3738,0.3862,0.3746,0.3746,0.3747,0.3747,0.3747,0,0.3495,0.3514,0.3512,0.3527,0.3526,0.3567,0.3582,0.3578,0.3569,0.3586,0.3588,0.3584,0.3583,0.3616,0.3619,0.3608,0.3626,0.3607,0.3607,0.361,0.3715,0.3723,0.3592,0.3592,0.3592,0.3592,0.3592,0.3592,0.3424,0.3399,0.3424,0.3406,0.3426,0.3418,0.3423,0.3433,0.3446,0.344,0.344,0.3462,0.3485,0.3492,0.3493,0.3503,0.3501,0.3475,0.349,0.3587,0.3602,0.3617,0.3624,0.3474,0.3474,0.3385,0.3384,0.3384]}]]